Time,TemperatureF,DewpointF,PressureIn,WindDirection,WindDirectionDegrees,WindSpeedMPH,WindSpeedGustMPH,Humidity,HourlyPrecipIn,Conditions,Clouds,dailyrainin,SoftwareType,DateUTC
2015-05-04 00:03:00,59.6,29.7,29.90,NNE,31,3.0,6.0,32,0.00,,FEW180,0.00,VWS V15.00,2015-05-04 07:03:00,
2015-05-04 00:08:00,59.5,30.4,29.89,NW,308,2.0,6.0,33,0.00,,FEW180,0.00,VWS V15.00,2015-05-04 07:08:00,
2015-05-04 00:13:00,59.3,30.2,29.89,NW,323,3.0,6.0,33,0.00,,FEW180,0.00,VWS V15.00,2015-05-04 07:13:00,
2015-05-04 00:28:00,59.1,30.0,29.89,NNE,22,6.0,6.0,33,0.00,,FEW180,0.00,VWS V15.00,2015-05-04 07:28:00,
2015-05-04 00:33:00,59.0,30.0,29.89,NE,44,3.0,7.0,33,0.00,,FEW180,0.00,VWS V15.00,2015-05-04 07:33:00,
2015-05-04 00:38:00,58.8,29.8,29.90,NNE,26,2.0,7.0,33,0.00,,FEW180,0.00,VWS V15.00,2015-05-04 07:38:00,
2015-05-04 00:43:00,58.7,29.7,29.90,North,357,2.0,7.0,33,0.00,,FEW180,0.00,VWS V15.00,2015-05-04 07:43:00,
2015-05-04 00:48:00,58.6,29.6,29.90,NNE,27,3.0,7.0,33,0.00,,FEW180,0.00,VWS V15.00,2015-05-04 07:48:00,
2015-05-04 00:53:00,58.7,28.9,29.90,NNE,19,0.0,7.0,32,0.00,,FEW180,0.00,VWS V15.00,2015-05-04 07:53:00,
2015-05-04 00:58:00,58.5,28.8,29.90,ENE,75,2.0,7.0,32,0.00,,FEW180,0.00,VWS V15.00,2015-05-04 07:58:00,
2015-05-04 01:03:00,58.2,28.5,29.90,East,97,0.0,7.0,32,0.00,,FEW180,0.00,VWS V15.00,2015-05-04 08:03:00,
2015-05-04 01:08:00,58.0,29.1,29.90,ENE,70,1.0,7.0,33,0.00,,FEW180,0.00,VWS V15.00,2015-05-04 08:08:00,
2015-05-04 01:13:00,57.8,28.9,29.90,ENE,71,0.0,7.0,33,0.00,,FEW180,0.00,VWS V15.00,2015-05-04 08:13:00,
2015-05-04 01:18:00,57.5,28.6,29.90,NE,35,2.0,7.0,33,0.00,,FEW180,0.00,VWS V15.00,2015-05-04 08:18:00,
2015-05-04 01:23:00,57.4,28.5,29.90,NE,41,3.0,7.0,33,0.00,,FEW180,0.00,VWS V15.00,2015-05-04 08:23:00,
2015-05-04 01:28:00,57.3,27.7,29.90,NNW,338,1.0,7.0,32,0.00,,FEW180,0.00,VWS V15.00,2015-05-04 08:28:00,
2015-05-04 01:33:00,57.2,28.4,29.89,NNE,16,1.0,7.0,33,0.00,,FEW180,0.00,VWS V15.00,2015-05-04 08:33:00,
2015-05-04 01:43:00,56.9,28.1,29.89,NNW,330,0.0,7.0,33,0.00,,FEW180,0.00,VWS V15.00,2015-05-04 08:43:00,
2015-05-04 01:48:00,56.5,28.5,29.89,NNW,337,0.0,7.0,34,0.00,,FEW180,0.00,VWS V15.00,2015-05-04 08:48:00,
2015-05-04 01:52:00,55.9,28.7,29.89,NNE,28,1.0,7.0,35,0.00,,FEW180,0.00,VWS V15.00,2015-05-04 08:52:00,
2015-05-04 01:57:00,55.6,28.4,29.89,North,352,1.0,2.0,35,0.00,,FEW180,0.00,VWS V15.00,2015-05-04 08:57:00,
2015-05-04 02:02:00,55.8,28.6,29.89,NNW,333,2.0,4.0,35,0.00,,FEW180,0.00,VWS V15.00,2015-05-04 09:02:00,
2015-05-04 02:07:00,56.0,28.0,29.89,NNW,340,2.0,5.0,34,0.00,,FEW180,0.00,VWS V15.00,2015-05-04 09:07:00,
2015-05-04 02:12:00,56.2,28.2,29.89,NNE,14,0.0,5.0,34,0.00,,FEW180,0.00,VWS V15.00,2015-05-04 09:12:00,
2015-05-04 02:17:00,56.2,28.2,29.89,NNW,333,4.0,5.0,34,0.00,,FEW180,0.00,VWS V15.00,2015-05-04 09:17:00,
2015-05-04 02:22:00,56.2,28.2,29.89,North,9,1.0,5.0,34,0.00,,FEW180,0.00,VWS V15.00,2015-05-04 09:22:00,
2015-05-04 02:27:00,56.2,27.5,29.89,NNW,342,1.0,5.0,33,0.00,,FEW180,0.00,VWS V15.00,2015-05-04 09:27:00,
2015-05-04 02:32:00,56.1,28.1,29.89,NNE,27,2.0,5.0,34,0.00,,FEW180,0.00,VWS V15.00,2015-05-04 09:32:00,
2015-05-04 02:37:00,56.1,27.4,29.89,NNE,23,4.0,5.0,33,0.00,,FEW180,0.00,VWS V15.00,2015-05-04 09:37:00,
2015-05-04 02:42:00,55.8,27.9,29.89,NNE,25,4.0,5.0,34,0.00,,FEW180,0.00,VWS V15.00,2015-05-04 09:42:00,
2015-05-04 02:47:00,55.9,27.2,29.89,NE,51,0.0,5.0,33,0.00,,FEW180,0.00,VWS V15.00,2015-05-04 09:47:00,
2015-05-04 02:52:00,56.1,27.4,29.89,NNW,348,3.0,8.0,33,0.00,,FEW180,0.00,VWS V15.00,2015-05-04 09:52:00,
2015-05-04 02:57:00,56.3,27.6,29.88,NNW,333,3.0,8.0,33,0.00,,FEW180,0.00,VWS V15.00,2015-05-04 09:57:00,
2015-05-04 03:02:00,56.1,27.4,29.89,NE,35,3.0,8.0,33,0.00,,FEW180,0.00,VWS V15.00,2015-05-04 10:02:00,
2015-05-04 03:07:00,55.8,27.1,29.89,NNE,22,3.0,8.0,33,0.00,,FEW180,0.00,VWS V15.00,2015-05-04 10:07:00,
2015-05-04 03:12:00,55.5,26.9,29.89,NE,39,2.0,8.0,33,0.00,,FEW180,0.00,VWS V15.00,2015-05-04 10:12:00,
2015-05-04 03:17:00,55.2,27.3,29.89,East,89,2.0,8.0,34,0.00,,FEW180,0.00,VWS V15.00,2015-05-04 10:17:00,
2015-05-04 03:22:00,54.7,27.6,29.89,NNE,30,1.0,8.0,35,0.00,,FEW180,0.00,VWS V15.00,2015-05-04 10:22:00,
2015-05-04 03:27:00,54.4,27.3,29.89,NNW,334,1.0,8.0,35,0.00,,FEW180,0.00,VWS V15.00,2015-05-04 10:27:00,
2015-05-04 03:32:00,54.5,27.4,29.89,NNW,332,2.0,8.0,35,0.00,,FEW180,0.00,VWS V15.00,2015-05-04 10:32:00,
2015-05-04 03:37:00,54.6,27.5,29.89,NNE,30,1.0,8.0,35,0.00,,FEW180,0.00,VWS V15.00,2015-05-04 10:37:00,
2015-05-04 03:42:00,54.7,27.6,29.89,NNW,341,4.0,8.0,35,0.00,,FEW180,0.00,VWS V15.00,2015-05-04 10:42:00,
2015-05-04 03:47:00,54.9,27.1,29.89,NW,316,2.0,8.0,34,0.00,,FEW180,0.00,VWS V15.00,2015-05-04 10:47:00,
2015-05-04 03:52:00,54.8,27.7,29.89,NNE,25,2.0,8.0,35,0.00,,FEW180,0.00,VWS V15.00,2015-05-04 10:52:00,
2015-05-04 03:57:00,54.4,27.3,29.89,NW,325,2.0,3.0,35,0.00,,FEW180,0.00,VWS V15.00,2015-05-04 10:57:00,
2015-05-04 04:02:00,54.5,27.4,29.89,NNW,342,0.0,4.0,35,0.00,,FEW180,0.00,VWS V15.00,2015-05-04 11:02:00,
2015-05-04 04:07:00,54.1,27.1,29.89,NE,47,0.0,4.0,35,0.00,,FEW180,0.00,VWS V15.00,2015-05-04 11:07:00,
2015-05-04 04:12:00,53.4,27.1,29.89,East,97,1.0,4.0,36,0.00,,FEW180,0.00,VWS V15.00,2015-05-04 11:12:00,
2015-05-04 04:17:00,52.9,26.7,29.89,East,97,0.0,4.0,36,0.00,,FEW180,0.00,VWS V15.00,2015-05-04 11:17:00,
2015-05-04 04:22:00,52.3,26.8,29.89,East,97,0.0,4.0,37,0.00,,FEW180,0.00,VWS V15.00,2015-05-04 11:22:00,
2015-05-04 04:27:00,51.7,26.9,29.89,East,98,0.0,4.0,38,0.00,,FEW180,0.00,VWS V15.00,2015-05-04 11:27:00,
2015-05-04 04:32:00,51.3,27.2,29.89,SSE,150,0.0,4.0,39,0.00,,FEW180,0.00,VWS V15.00,2015-05-04 11:32:00,
2015-05-04 04:37:00,51.1,27.0,29.89,SSE,150,0.0,4.0,39,0.00,,FEW180,0.00,VWS V15.00,2015-05-04 11:37:00,
2015-05-04 04:42:00,50.8,27.4,29.89,SSE,150,0.0,4.0,40,0.00,,FEW180,0.00,VWS V15.00,2015-05-04 11:42:00,
2015-05-04 04:47:00,50.1,26.7,29.89,SSE,150,0.0,4.0,40,0.00,,FEW180,0.00,VWS V15.00,2015-05-04 11:47:00,
2015-05-04 04:52:00,49.7,27.0,29.89,SSE,150,0.0,4.0,41,0.00,,FEW180,0.00,VWS V15.00,2015-05-04 11:52:00,
2015-05-04 04:57:00,49.3,27.2,29.89,SSE,150,0.0,4.0,42,0.00,,FEW180,0.00,VWS V15.00,2015-05-04 11:57:00,
2015-05-04 05:02:00,49.1,27.0,29.90,SSE,150,0.0,4.0,42,0.00,,FEW180,0.00,VWS V15.00,2015-05-04 12:02:00,
2015-05-04 05:07:00,48.9,26.8,29.89,SSE,150,0.0,4.0,42,0.00,,FEW180,0.00,VWS V15.00,2015-05-04 12:07:00,
2015-05-04 05:12:00,48.7,27.8,29.90,SSE,150,0.0,4.0,44,0.00,,FEW180,0.00,VWS V15.00,2015-05-04 12:12:00,
2015-05-04 05:17:00,48.1,27.8,29.90,SSE,150,0.0,4.0,45,0.00,,FEW180,0.00,VWS V15.00,2015-05-04 12:17:00,
2015-05-04 05:22:00,47.9,27.6,29.89,SSE,150,0.0,4.0,45,0.00,,FEW180,0.00,VWS V15.00,2015-05-04 12:22:00,
2015-05-04 05:27:00,47.6,27.9,29.90,East,79,0.0,4.0,46,0.00,,FEW180,0.00,VWS V15.00,2015-05-04 12:27:00,
2015-05-04 05:32:00,47.2,28.0,29.90,South,170,0.0,4.0,47,0.00,,FEW180,0.00,VWS V15.00,2015-05-04 12:32:00,
2015-05-04 05:37:00,46.9,27.7,29.90,South,170,0.0,4.0,47,0.00,,FEW180,0.00,VWS V15.00,2015-05-04 12:37:00,
2015-05-04 05:42:00,46.8,27.6,29.90,South,170,0.0,4.0,47,0.00,,FEW180,0.00,VWS V15.00,2015-05-04 12:42:00,
2015-05-04 05:47:00,46.6,28.0,29.90,South,170,0.0,4.0,48,0.00,,FEW180,0.00,VWS V15.00,2015-05-04 12:47:00,
2015-05-04 05:52:00,46.6,28.0,29.91,South,170,0.0,4.0,48,0.00,,FEW180,0.00,VWS V15.00,2015-05-04 12:52:00,
2015-05-04 05:57:00,46.5,27.4,29.91,South,170,0.0,0.0,47,0.00,,FEW180,0.00,VWS V15.00,2015-05-04 12:57:00,
2015-05-04 06:02:00,46.8,27.6,29.91,South,170,0.0,0.0,47,0.00,,FEW180,0.00,VWS V15.00,2015-05-04 13:02:00,
2015-05-04 06:07:00,46.9,27.7,29.91,South,170,0.0,0.0,47,0.00,,FEW180,0.00,VWS V15.00,2015-05-04 13:07:00,
2015-05-04 06:12:00,46.8,27.6,29.91,South,170,0.0,0.0,47,0.00,,FEW180,0.00,VWS V15.00,2015-05-04 13:12:00,
2015-05-04 06:17:00,46.8,27.6,29.91,SSE,161,0.0,1.0,47,0.00,,FEW180,0.00,VWS V15.00,2015-05-04 13:17:00,
2015-05-04 06:22:00,46.9,27.2,29.91,SSE,161,0.0,1.0,46,0.00,,FEW180,0.00,VWS V15.00,2015-05-04 13:22:00,
2015-05-04 06:27:00,47.2,27.0,29.91,SSE,161,0.0,1.0,45,0.00,,FEW180,0.00,VWS V15.00,2015-05-04 13:27:00,
2015-05-04 06:32:00,47.3,27.6,29.92,SSE,161,0.0,1.0,46,0.00,,FEW180,0.00,VWS V15.00,2015-05-04 13:32:00,
2015-05-04 06:37:00,47.4,27.1,29.92,SSE,161,0.0,1.0,45,0.00,,FEW180,0.00,VWS V15.00,2015-05-04 13:37:00,
2015-05-04 06:42:00,47.4,27.7,29.92,SSE,161,0.0,1.0,46,0.00,,FEW180,0.00,VWS V15.00,2015-05-04 13:42:00,
2015-05-04 06:47:00,48.0,29.3,29.92,SSE,161,0.0,1.0,48,0.00,,FEW180,0.00,VWS V15.00,2015-05-04 13:47:00,
2015-05-04 06:52:00,49.4,29.5,29.92,SSE,161,0.0,1.0,46,0.00,,FEW180,0.00,VWS V15.00,2015-05-04 13:52:00,
2015-05-04 06:57:00,51.6,29.9,29.92,SSE,161,0.0,1.0,43,0.00,,FEW180,0.00,VWS V15.00,2015-05-04 13:57:00,
2015-05-04 07:02:00,53.7,30.0,29.92,SSE,161,0.0,1.0,40,0.00,,FEW180,0.00,VWS V15.00,2015-05-04 14:02:00,
2015-05-04 07:06:00,54.3,29.9,29.92,SSE,161,0.0,1.0,39,0.00,,FEW180,0.00,VWS V15.00,2015-05-04 14:06:00,
2015-05-04 07:11:00,54.4,30.0,29.92,SSE,161,0.0,1.0,39,0.00,,FEW180,0.00,VWS V15.00,2015-05-04 14:11:00,
2015-05-04 07:16:00,54.6,30.2,29.92,SSE,161,0.0,1.0,39,0.00,,FEW180,0.00,VWS V15.00,2015-05-04 14:16:00,
2015-05-04 07:21:00,55.2,30.7,29.92,SSE,161,0.0,1.0,39,0.00,,FEW180,0.00,VWS V15.00,2015-05-04 14:21:00,
2015-05-04 07:26:00,56.1,31.5,29.92,SSE,161,0.0,1.0,39,0.00,,FEW180,0.00,VWS V15.00,2015-05-04 14:26:00,
2015-05-04 07:31:00,57.5,30.8,29.92,SSE,161,0.0,1.0,36,0.00,,FEW180,0.00,VWS V15.00,2015-05-04 14:31:00,
2015-05-04 07:36:00,57.7,30.3,29.93,SW,226,1.0,2.0,35,0.00,,FEW180,0.00,VWS V15.00,2015-05-04 14:36:00,
2015-05-04 07:41:00,57.4,30.0,29.93,SW,222,1.0,2.0,35,0.00,,FEW180,0.00,VWS V15.00,2015-05-04 14:41:00,
2015-05-04 07:46:00,57.2,30.5,29.93,SSW,208,1.0,3.0,36,0.00,,FEW180,0.00,VWS V15.00,2015-05-04 14:46:00,
2015-05-04 07:51:00,57.1,31.1,29.93,SW,217,1.0,3.0,37,0.00,,FEW180,0.00,VWS V15.00,2015-05-04 14:51:00,
2015-05-04 07:56:00,57.5,30.8,29.93,SW,217,0.0,2.0,36,0.00,,FEW180,0.00,VWS V15.00,2015-05-04 14:56:00,
2015-05-04 08:01:00,58.0,30.5,29.93,SSW,206,1.0,2.0,35,0.00,,FEW180,0.00,VWS V15.00,2015-05-04 15:01:00,
2015-05-04 08:06:00,58.0,30.5,29.93,SSW,207,0.0,2.0,35,0.00,,FEW180,0.00,VWS V15.00,2015-05-04 15:06:00,
2015-05-04 08:11:00,58.4,30.9,29.93,SSW,212,1.0,2.0,35,0.00,,FEW180,0.00,VWS V15.00,2015-05-04 15:11:00,
2015-05-04 08:16:00,58.6,31.0,29.92,SW,221,2.0,3.0,35,0.00,,FEW180,0.00,VWS V15.00,2015-05-04 15:16:00,
2015-05-04 08:21:00,58.8,31.2,29.92,SSW,213,1.0,3.0,35,0.00,,FEW180,0.00,VWS V15.00,2015-05-04 15:21:00,
2015-05-04 08:26:00,59.3,31.7,29.92,South,178,0.0,3.0,35,0.00,,FEW180,0.00,VWS V15.00,2015-05-04 15:26:00,
2015-05-04 08:31:00,60.3,31.8,29.92,ESE,119,0.0,3.0,34,0.00,,FEW180,0.00,VWS V15.00,2015-05-04 15:31:00,
2015-05-04 08:36:00,61.0,31.0,29.92,SSW,210,1.0,3.0,32,0.00,,FEW180,0.00,VWS V15.00,2015-05-04 15:36:00,
2015-05-04 08:41:00,61.2,30.4,29.92,SSW,212,0.0,3.0,31,0.00,,FEW180,0.00,VWS V15.00,2015-05-04 15:41:00,
2015-05-04 08:46:00,61.8,30.1,29.92,SSW,212,0.0,3.0,30,0.00,,FEW180,0.00,VWS V15.00,2015-05-04 15:46:00,
2015-05-04 08:51:00,62.7,30.0,29.92,SSW,212,0.0,3.0,29,0.00,,FEW180,0.00,VWS V15.00,2015-05-04 15:51:00,
2015-05-04 08:56:00,63.5,29.0,29.92,WSW,244,0.0,3.0,27,0.00,,FEW180,0.00,VWS V15.00,2015-05-04 15:56:00,
2015-05-04 09:01:00,63.4,28.9,29.92,North,6,0.0,3.0,27,0.00,,FEW180,0.00,VWS V15.00,2015-05-04 16:01:00,
2015-05-04 09:06:00,63.4,28.9,29.92,NNW,342,0.0,3.0,27,0.00,,FEW180,0.00,VWS V15.00,2015-05-04 16:06:00,
2015-05-04 09:11:00,62.8,29.2,29.92,NW,314,1.0,3.0,28,0.00,,FEW180,0.00,VWS V15.00,2015-05-04 16:11:00,
2015-05-04 09:16:00,62.8,27.4,29.92,NW,324,1.0,3.0,26,0.00,,FEW180,0.00,VWS V15.00,2015-05-04 16:16:00,
2015-05-04 09:21:00,62.7,26.4,29.92,NE,41,0.0,3.0,25,0.00,,FEW180,0.00,VWS V15.00,2015-05-04 16:21:00,
2015-05-04 09:26:00,62.7,28.3,29.92,NNE,14,3.0,3.0,27,0.00,,FEW180,0.00,VWS V15.00,2015-05-04 16:26:00,
2015-05-04 09:31:00,62.9,26.6,29.91,East,94,1.0,4.0,25,0.00,,FEW180,0.00,VWS V15.00,2015-05-04 16:31:00,
2015-05-04 09:36:00,63.3,26.9,29.91,NE,35,2.0,5.0,25,0.00,,FEW180,0.00,VWS V15.00,2015-05-04 16:36:00,
2015-05-04 09:41:00,63.6,27.2,29.91,NE,53,0.0,5.0,25,0.00,,FEW180,0.00,VWS V15.00,2015-05-04 16:41:00,
2015-05-04 09:46:00,64.4,26.9,29.91,North,11,2.0,5.0,24,0.00,,FEW180,0.00,VWS V15.00,2015-05-04 16:46:00,
2015-05-04 09:51:00,64.7,28.1,29.91,NNW,338,1.0,5.0,25,0.00,,FEW180,0.00,VWS V15.00,2015-05-04 16:51:00,
2015-05-04 09:56:00,64.9,27.3,29.91,East,82,3.0,4.0,24,0.00,,FEW180,0.00,VWS V15.00,2015-05-04 16:56:00,
2015-05-04 10:01:00,64.9,26.2,29.91,NE,47,7.0,7.0,23,0.00,,FEW180,0.00,VWS V15.00,2015-05-04 17:01:00,
2015-05-04 10:06:00,64.9,30.1,29.91,North,4,0.0,7.0,27,0.00,,FEW180,0.00,VWS V15.00,2015-05-04 17:06:00,
2015-05-04 10:11:00,65.2,27.5,29.91,SSE,150,0.0,9.0,24,0.00,,FEW180,0.00,VWS V15.00,2015-05-04 17:11:00,
2015-05-04 10:16:00,65.5,27.8,29.91,SW,232,1.0,9.0,24,0.00,,FEW180,0.00,VWS V15.00,2015-05-04 17:16:00,
2015-05-04 10:21:00,66.4,28.5,29.91,NNE,26,1.0,9.0,24,0.00,,FEW180,0.00,VWS V15.00,2015-05-04 17:21:00,
2015-05-04 10:26:00,66.6,28.7,29.91,ENE,62,2.0,9.0,24,0.00,,FEW180,0.00,VWS V15.00,2015-05-04 17:26:00,
2015-05-04 10:31:00,66.9,26.9,29.91,North,9,2.0,9.0,22,0.00,,FEW180,0.00,VWS V15.00,2015-05-04 17:31:00,
2015-05-04 10:36:00,67.3,27.2,29.91,NW,324,4.0,9.0,22,0.00,,FEW180,0.00,VWS V15.00,2015-05-04 17:36:00,
2015-05-04 10:41:00,67.1,25.9,29.91,NNE,30,3.0,9.0,21,0.00,,FEW180,0.00,VWS V15.00,2015-05-04 17:41:00,
2015-05-04 10:46:00,67.3,26.1,29.90,South,172,0.0,9.0,21,0.00,,FEW180,0.00,VWS V15.00,2015-05-04 17:46:00,
2015-05-04 10:51:00,68.1,26.7,29.90,WNW,283,1.0,9.0,21,0.00,,FEW180,0.00,VWS V15.00,2015-05-04 17:51:00,
2015-05-04 10:56:00,69.3,26.5,29.90,SSW,202,1.0,9.0,20,0.00,,FEW180,0.00,VWS V15.00,2015-05-04 17:56:00,
2015-05-04 11:01:00,69.9,25.8,29.90,NW,317,5.0,9.0,19,0.00,,FEW180,0.00,VWS V15.00,2015-05-04 18:01:00,
2015-05-04 11:06:00,69.2,26.5,29.90,ENE,68,0.0,9.0,20,0.00,,FEW180,0.00,VWS V15.00,2015-05-04 18:06:00,
2015-05-04 11:11:00,69.5,27.9,29.90,NW,319,0.0,9.0,21,0.00,,FEW180,0.00,VWS V15.00,2015-05-04 18:11:00,
2015-05-04 11:16:00,69.3,25.3,29.90,NW,320,2.0,9.0,19,0.00,,FEW180,0.00,VWS V15.00,2015-05-04 18:16:00,
2015-05-04 11:21:00,69.3,26.5,29.90,East,88,1.0,9.0,20,0.00,,FEW180,0.00,VWS V15.00,2015-05-04 18:21:00,
2015-05-04 11:26:00,69.6,26.8,29.90,ENE,70,1.0,9.0,20,0.00,,FEW180,0.00,VWS V15.00,2015-05-04 18:26:00,
2015-05-04 11:31:00,70.0,30.5,29.89,East,96,0.0,9.0,23,0.00,,FEW180,0.00,VWS V15.00,2015-05-04 18:31:00,
2015-05-04 11:36:00,71.2,28.1,29.89,NNE,14,4.0,9.0,20,0.00,,FEW180,0.00,VWS V15.00,2015-05-04 18:36:00,
2015-05-04 11:41:00,70.5,28.7,29.89,WNW,294,3.0,9.0,21,0.00,,FEW180,0.00,VWS V15.00,2015-05-04 18:41:00,
2015-05-04 11:46:00,70.7,30.0,29.89,SW,214,0.0,9.0,22,0.00,,FEW180,0.00,VWS V15.00,2015-05-04 18:46:00,
2015-05-04 11:51:00,71.7,30.9,29.89,West,260,0.0,9.0,22,0.00,,FEW180,0.00,VWS V15.00,2015-05-04 18:51:00,
2015-05-04 11:56:00,71.7,29.7,29.89,ENE,69,1.0,4.0,21,0.00,,FEW180,0.00,VWS V15.00,2015-05-04 18:56:00,
2015-05-04 12:01:00,71.6,29.6,29.88,SSW,206,0.0,4.0,21,0.00,,FEW180,0.00,VWS V15.00,2015-05-04 19:01:00,
2015-05-04 12:06:00,72.4,30.3,29.88,WNW,302,1.0,4.0,21,0.00,,FEW180,0.00,VWS V15.00,2015-05-04 19:06:00,
2015-05-04 12:11:00,72.0,28.8,29.88,NNE,27,7.0,7.0,20,0.00,,FEW180,0.00,VWS V15.00,2015-05-04 19:11:00,
2015-05-04 12:16:00,71.6,28.4,29.88,NE,46,6.0,8.0,20,0.00,,FEW180,0.00,VWS V15.00,2015-05-04 19:16:00,
2015-05-04 12:21:00,71.0,28.0,29.87,ENE,65,4.0,8.0,20,0.00,,FEW180,0.00,VWS V15.00,2015-05-04 19:21:00,
2015-05-04 12:25:00,71.2,28.1,29.87,North,352,1.0,8.0,20,0.00,,FEW180,0.00,VWS V15.00,2015-05-04 19:25:00,
2015-05-04 12:30:00,71.4,28.3,29.87,WNW,283,0.0,8.0,20,0.00,,FEW180,0.00,VWS V15.00,2015-05-04 19:30:00,
2015-05-04 12:35:00,72.0,28.8,29.86,NW,318,10.0,10.0,20,0.00,,FEW180,0.00,VWS V15.00,2015-05-04 19:35:00,
2015-05-04 12:40:00,72.1,27.6,29.86,NNW,340,4.0,10.0,19,0.00,,FEW180,0.00,VWS V15.00,2015-05-04 19:40:00,
2015-05-04 12:45:00,71.7,29.7,29.86,SSW,203,2.0,10.0,21,0.00,,FEW180,0.00,VWS V15.00,2015-05-04 19:45:00,
2015-05-04 12:50:00,72.6,29.3,29.86,SSW,204,0.0,10.0,20,0.00,,FEW180,0.00,VWS V15.00,2015-05-04 19:50:00,
2015-05-04 12:55:00,73.2,29.8,29.85,NW,317,2.0,10.0,20,0.00,,FEW180,0.00,VWS V15.00,2015-05-04 19:55:00,
2015-05-04 13:00:00,72.8,29.4,29.85,North,4,5.0,11.0,20,0.00,,FEW180,0.00,VWS V15.00,2015-05-04 20:00:00,
2015-05-04 13:05:00,72.9,30.7,29.85,WNW,299,5.0,11.0,21,0.00,,FEW180,0.00,VWS V15.00,2015-05-04 20:05:00,
2015-05-04 13:10:00,73.3,28.6,29.84,WNW,293,2.0,11.0,19,0.00,,FEW180,0.00,VWS V15.00,2015-05-04 20:10:00,
2015-05-04 13:15:00,73.7,30.2,29.84,NW,326,2.0,11.0,20,0.00,,FEW180,0.00,VWS V15.00,2015-05-04 20:15:00,
2015-05-04 13:20:00,73.2,28.5,29.84,ENE,63,2.0,11.0,19,0.00,,FEW180,0.00,VWS V15.00,2015-05-04 20:20:00,
2015-05-04 13:25:00,73.4,29.9,29.84,North,3,1.0,11.0,20,0.00,,FEW180,0.00,VWS V15.00,2015-05-04 20:25:00,
2015-05-04 13:30:00,74.4,30.8,29.84,SW,236,0.0,11.0,20,0.00,,FEW180,0.00,VWS V15.00,2015-05-04 20:30:00,
2015-05-04 13:35:00,75.5,29.1,29.83,East,96,2.0,11.0,18,0.00,,FEW180,0.00,VWS V15.00,2015-05-04 20:35:00,
2015-05-04 13:40:00,76.0,34.5,29.83,SE,138,1.0,11.0,22,0.00,,FEW180,0.00,VWS V15.00,2015-05-04 20:40:00,
2015-05-04 13:45:00,76.4,31.1,29.83,NE,52,1.0,11.0,19,0.00,,FEW180,0.00,VWS V15.00,2015-05-04 20:45:00,
2015-05-04 13:50:00,75.9,30.7,29.83,North,11,6.0,11.0,19,0.00,,FEW180,0.00,VWS V15.00,2015-05-04 20:50:00,
2015-05-04 13:55:00,74.9,28.6,29.83,ENE,67,2.0,4.0,18,0.00,,FEW180,0.00,VWS V15.00,2015-05-04 20:55:00,
2015-05-04 14:00:00,74.7,28.4,29.82,ESE,109,2.0,4.0,18,0.00,,FEW180,0.00,VWS V15.00,2015-05-04 21:00:00,
2015-05-04 14:05:00,74.1,27.9,29.82,NNE,27,1.0,9.0,18,0.00,,FEW180,0.00,VWS V15.00,2015-05-04 21:05:00,
2015-05-04 14:10:00,73.9,27.8,29.82,NNW,333,4.0,9.0,18,0.00,,FEW180,0.00,VWS V15.00,2015-05-04 21:10:00,
2015-05-04 14:15:00,74.4,30.8,29.82,NE,37,5.0,9.0,20,0.00,,FEW180,0.00,VWS V15.00,2015-05-04 21:15:00,
2015-05-04 14:20:00,74.5,28.2,29.82,NNE,12,3.0,9.0,18,0.00,,FEW180,0.00,VWS V15.00,2015-05-04 21:20:00,
2015-05-04 14:25:00,74.6,28.3,29.82,NE,42,3.0,11.0,18,0.00,,FEW180,0.00,VWS V15.00,2015-05-04 21:25:00,
2015-05-04 14:30:00,74.4,29.5,29.81,NNE,28,1.0,11.0,19,0.00,,FEW180,0.00,VWS V15.00,2015-05-04 21:30:00,
2015-05-04 14:35:00,75.0,28.7,29.81,NNW,329,3.0,11.0,18,0.00,,FEW180,0.00,VWS V15.00,2015-05-04 21:35:00,
2015-05-04 14:40:00,75.3,28.9,29.81,SSE,160,1.0,11.0,18,0.00,,FEW180,0.00,VWS V15.00,2015-05-04 21:40:00,
2015-05-04 14:45:00,76.7,31.4,29.81,NW,307,0.0,11.0,19,0.00,,FEW180,0.00,VWS V15.00,2015-05-04 21:45:00,
2015-05-04 14:50:00,77.8,29.5,29.81,SE,141,2.0,11.0,17,0.00,,FEW180,0.00,VWS V15.00,2015-05-04 21:50:00,
2015-05-04 14:55:00,77.0,28.9,29.81,WNW,297,1.0,11.0,17,0.00,,FEW180,0.00,VWS V15.00,2015-05-04 21:55:00,
2015-05-04 15:00:00,76.2,29.6,29.80,NE,34,5.0,11.0,18,0.00,,FEW180,0.00,VWS V15.00,2015-05-04 22:00:00,
2015-05-04 15:05:00,76.2,32.2,29.80,SW,234,0.0,11.0,20,0.00,,FEW180,0.00,VWS V15.00,2015-05-04 22:05:00,
2015-05-04 15:10:00,75.5,29.1,29.80,North,349,6.0,14.0,18,0.00,,FEW180,0.00,VWS V15.00,2015-05-04 22:10:00,
2015-05-04 15:15:00,74.9,29.9,29.80,NNW,329,4.0,14.0,19,0.00,,FEW180,0.00,VWS V15.00,2015-05-04 22:15:00,
2015-05-04 15:20:00,74.9,31.2,29.80,WNW,289,2.0,14.0,20,0.00,,FEW180,0.00,VWS V15.00,2015-05-04 22:20:00,
2015-05-04 15:25:00,74.7,31.0,29.79,West,280,3.0,14.0,20,0.00,,FEW180,0.00,VWS V15.00,2015-05-04 22:25:00,
2015-05-04 15:30:00,74.4,30.8,29.79,WNW,296,1.0,14.0,20,0.00,,FEW180,0.00,VWS V15.00,2015-05-04 22:30:00,
2015-05-04 15:35:00,74.1,30.5,29.79,WNW,302,0.0,14.0,20,0.00,,FEW180,0.00,VWS V15.00,2015-05-04 22:35:00,
2015-05-04 15:40:00,73.9,30.3,29.79,West,271,0.0,14.0,20,0.00,,FEW180,0.00,VWS V15.00,2015-05-04 22:40:00,
2015-05-04 15:45:00,73.9,30.3,29.79,West,269,1.0,14.0,20,0.00,,FEW180,0.00,VWS V15.00,2015-05-04 22:45:00,
2015-05-04 15:50:00,74.0,31.6,29.79,NW,304,0.0,14.0,21,0.00,,FEW180,0.00,VWS V15.00,2015-05-04 22:50:00,
2015-05-04 15:55:00,73.3,33.3,29.79,SW,223,1.0,4.0,23,0.00,,FEW180,0.00,VWS V15.00,2015-05-04 22:55:00,
2015-05-04 16:00:00,72.7,40.3,29.80,SSW,212,1.0,4.0,31,0.00,,FEW180,0.00,VWS V15.00,2015-05-04 23:00:00,